Terminal Aerodrome Forecast
Issued by NWS

Home | Current Version | Previous Version | Text Only | Print | Product List | Glossary On
Versions: 1 2 3 4 5 6 7 8 9 10 11 12 13 14 15 16 17 18 19 20 21 22 23 24 25 26
000
FTAK31 PANC 290541
TAFATK
TAF
PATK 290541Z 2906/3006 20008KT P6SM -SHRA SCT030 BKN050 OVC100
     FM290900 19006KT P6SM -SHRA BKN030 OVC050=

USA.gov is the U.S. government's official web portal to all federal, state and local government web resources and services.